Regional Weather Roundup
Issued by NWS Charleston, WV

Home | Current Version | Previous Version | Text Only | Print | Product List | Glossary Off
Versions: 1 2 3 4 5 6 7 8 9 10 11 12 13 14 15 16 17 18 19 20 21 22 23 24 25

000
ASUS41 KRLX 171610
RWRRLX
West Virginia Regional Weather Roundup
National Weather Service Charleston WV
1100 AM EST SAT FEB 17 2018

Note: "fair" indicates few or no clouds below 12,000 feet with no
significant weather and/or obstructions to visibility.

WVZ003-171700-
Northern Panhandle of West Virginia

CITY           SKY/WX    TMP DP  RH WIND       PRES   REMARKS
WHEELING         N/A     31  22  69 E8        30.14F
$$

WVZ009-171700-
Northwest West Virginia

CITY           SKY/WX    TMP DP  RH WIND       PRES   REMARKS
PARKERSBURG    CLOUDY    34  28  79 E3        30.16F
$$

WVZ006-171700-
Western West Virginia

CITY           SKY/WX    TMP DP  RH WIND       PRES   REMARKS
HUNTINGTON       N/A     37  32  82 NE6       30.09F
$$

WVZ015-171700-
West Central West Virginia

CITY           SKY/WX    TMP DP  RH WIND       PRES   REMARKS
CHARLESTON     CLOUDY    41  36  82 VRB3      30.10F
$$

WVZ022-031-171700-
North Central West Virginia

CITY           SKY/WX    TMP DP  RH WIND       PRES   REMARKS
CLARKSBURG       N/A     37  29  72 CALM      30.15F
MORGANTOWN       N/A     37  26  64 E6        30.16F
$$

WVZ025-035-042-045-171700-
Southern West Virginia

CITY           SKY/WX    TMP DP  RH WIND       PRES   REMARKS
BECKLEY        LGT RAIN  37  33  85 SE18G26   30.12R
LOGAN            N/A     43  36  75 S10       30.06F
BLUEFIELD      LGT RAIN  37  32  82 S9G23     30.13F
LEWISBURG      DRIZZLE   37  32  81 S6        30.19S
$$

WVZ047-171700-
Northern Mountains of West Virginia

CITY           SKY/WX    TMP DP  RH WIND       PRES   REMARKS
ELKINS           N/A     38  31  76 CALM      30.12F
$$

WVZ052-171700-
Eastern Panhandle of West Virginia

CITY           SKY/WX    TMP DP  RH WIND       PRES   REMARKS
MARTINSBURG      N/A     36  23  59 SE9       30.30F
PETERSBURG     CLOUDY    33  25  72 CALM      30.25F
$$




USA.gov is the U.S. government's official web portal to all federal, state and local government web resources and services.